Погода в Новой Калами

Россия / Красноярский край     60°10′25″N   93°02′45″E
темп.,
°C
ветер,
м/с
пор.,
м/с
влажн.,
%
обл.,
%
осадки,
мм/ч
давл.,
гПа
погр.,
м
21 января, пт
пт2101:00−14юз3109599 0.1 1030299
04:00−14юз2796100 0.2 1031215
07:00−19ююз2210086 0.3 103411
10:00−21ююз2210092 0.0 103517
13:00−13юз129478 0.0 1034141
16:00−15юз119977 0.0 10359
19:00−20ююв11100100 0.1 10379
22:00−19ююв1199100 0.0 103710
22 января, сб
сб2201:00−18ююв119998 0.0 103710
04:00−17ююв1198100 0.0 10379
07:00−17юв119882 0.0 10379
10:00−17юв1198100 0.0 103710
13:00−10ссв019499 0.0 103692
16:00−13св0098100 0.0 103610
19:00−17вюв11100100 0.0 10389
22:00−17юв1199100 0.0 10399
23 января, вс
вс2301:00−18юв1199100 0.0 10399
04:00−19ююв11100100 0.0 10399
07:00−19юв1110082 0.1 10399
10:00−20юв1110095 0.0 10409
13:00−13ссв009584 0.1 103792
16:00−15ссв0010078 0.0 10389
19:00−21ююв11100100 0.0 10399
22:00−22ююв11100100 0.0 10409
24 января, пн
пн2401:00−23ю11100100 0.1 10409
04:00−21ю1110091 0.1 103811
07:00−22ююз1110089 0.1 10399
10:00−19юз11100100 0.1 103821
13:00−14з119492 0.1 1036127
16:00−13з1197100 0.1 103552
19:00−16зюз119999 0.3 103610
22:00−18зюз1110083 0.1 10379
25 января, вт
вт2501:00−21юз1110099 0.1 10379
04:00−24ююв11100100 0.1 10379
07:00−25ююв11100100 0.1 10389
10:00−26юв11100100 0.0 10399
13:00−17ссв119370 0.0 1036138
16:00−19ссв11995 0.0 10369
19:00−26юв1110068 0.0 10389
22:00−27юв1110066 0.0 10399